User: anonymous   Login
Location: Unspecified
(0.0000°N, 0.0000°E)
Time: 23:16:01
(UTC+00:00)
Language:

ITUPSAT 1 - Orbit

View from above orbital plane
View from above orbital plane
View from above satellite
View from above satellite

Ground track
Ground track

The orbit data is extracted from the following two-line orbital elements,

1 35935U 09051E   18109.39532786 +.00000096 +00000-0 +33186-4 0  9992
2 35935 098.5517 260.9344 0008904 045.9092 314.2836 14.55428650454741
Epoch (UTC): 19 April 2018 09:29:16
Eccentricity: 0.0008904
inclination: 98.5517°
perigee height: 701 km
apogee height: 714 km
right ascension of ascending node: 260.9344°
argument of perigee: 45.9092°
revolutions per day: 14.55428650
mean anomaly at epoch: 314.2836°
orbit number at epoch: 45474

The dashed part of the orbit path shows where the satellite is in the earth's shadow,  

DLR